User: anonymous   Login
Location: Turtle Rock Observatory
(36.6913°N, 81.9708°W)
Time: 04:49:03
(UTC-04:00)
Language:

Cosmos 1125 Rocket - Orbit

View from above orbital plane
View from above orbital plane
View from above satellite
View from above satellite

Ground track
Ground track

The orbit data is extracted from the following two-line orbital elements,

1 11511U 79078B   15242.82104650  .00000067  00000-0  31560-4 0  9992
2 11511 074.0353 081.5982 0014957 128.1508 232.0996 14.36647477884355
Epoch (UTC): 30 August 2015 19:42:18
Eccentricity: 0.0014957
inclination: 74.0353°
perigee height: 759 km
apogee height: 780 km
right ascension of ascending node: 81.5982°
argument of perigee: 128.1508°
revolutions per day: 14.36647477
mean anomaly at epoch: 232.0996°
orbit number at epoch: 88435

The dashed part of the orbit path shows where the satellite is in the earth's shadow,  

DLR